QPF
0.01 0.00 0.00 0.00 0.00 0.00 0.01 0.01 0.01 0.01 0.01 0.01 0.01 0.00 0.00 0.00 0.00 0.00 0.00 0.00 0.00 0.00 0.00 0.00 0.00 0.01 0.00 0.00 0.00 0.00 0.00 0.00 0.00 0.00 0.00 0.00 0.00 0.01 0.00 0.01 0.06 0.05 0.01
0.01 0.00 0.00 0.00 0.00 0.00 0.01 0.02 0.02 0.02 0.01 0.01 0.01 0.01 0.01 0.00 0.00 0.00 0.00 0.00 0.00 0.00 0.00 0.00 0.00 0.01 0.01 0.00 0.00 0.00 0.00 0.00 0.00 0.00 0.01 0.01 0.00 0.00 0.01 0.02 0.06 0.05 0.01
0.00 0.00 0.00 0.00 0.00 0.00 0.01 0.01 0.02 0.02 0.01 0.02 0.02 0.02 0.01 0.00 0.00 0.00 0.00 0.00 0.00 0.01 0.01 0.00 0.01 0.00 0.00 0.00 0.00 0.00 0.00 0.00 0.00 0.01 0.07 0.08 0.03 0.01 0.01 0.01 0.02 0.01 0.00
0.00 0.00 0.00 0.00 0.00 0.00 0.00 0.01 0.02 0.02 0.02 0.02 0.02 0.02 0.01 0.01 0.01 0.01 0.00 0.00 0.00 0.01 0.00 0.00 0.00 0.00 0.00 0.00 0.00 0.00 0.00 0.00 0.00 0.02 0.12 0.17 0.10 0.03 0.01 0.00 0.00 0.01 0.00
0.00 0.00 0.00 0.00 0.00 0.01 0.01 0.01 0.01 0.01 0.02 0.02 0.03 0.02 0.02 0.02 0.01 0.01 0.00 0.01 0.01 0.01 0.00 0.00 0.00 0.00 0.00 0.00 0.00 0.00 0.00 0.00 0.01 0.03 0.10 0.13 0.11 0.04 0.01 0.00 0.00 0.01 0.01
0.00 0.00 0.00 0.00 0.00 0.00 0.00 0.01 0.01 0.01 0.02 0.02 0.02 0.02 0.02 0.02 0.02 0.01 0.01 0.01 0.01 0.01 0.00 0.00 0.00 0.00 0.00 0.01 0.01 0.01 0.00 0.00 0.01 0.05 0.07 0.05 0.07 0.05 0.01 0.00 0.00 0.01 0.01
0.01 0.00 0.00 0.00 0.00 0.00 0.00 0.01 0.01 0.01 0.01 0.01 0.02 0.02 0.03 0.02 0.02 0.01 0.01 0.01 0.01 0.01 0.01 0.00 0.00 0.00 0.00 0.00 0.01 0.00 0.01 0.01 0.03 0.07 0.06 0.04 0.08 0.04 0.01 0.00 0.00 0.01 0.01
0.01 0.01 0.01 0.01 0.01 0.01 0.01 0.01 0.01 0.01 0.01 0.01 0.02 0.02 0.02 0.02 0.01 0.01 0.01 0.01 0.00 0.01 0.01 0.01 0.01 0.00 0.00 0.00 0.00 0.00 0.01 0.01 0.03 0.03 0.03 0.05 0.07 0.03 0.02 0.01 0.01 0.01 0.01
0.00 0.00 0.01 0.02 0.01 0.01 0.01 0.01 0.01 0.01 0.01 0.02 0.02 0.02 0.01 0.01 0.01 0.01 0.01 0.01 0.01 0.01 0.01 0.01 0.01 0.00 0.00 0.00 0.00 0.00 0.00 0.02 0.03 0.02 0.03 0.07 0.05 0.02 0.02 0.02 0.02 0.01 0.01
0.01 0.01 0.01 0.01 0.01 0.01 0.01 0.01 0.01 0.01 0.01 0.01 0.01 0.01 0.00 0.00 0.01 0.01 0.01 0.01 0.01 0.01 0.00 0.01 0.01 0.01 0.01 0.00 0.00 0.00 0.00 0.01 0.01 0.04 0.07 0.09 0.04 0.03 0.03 0.03 0.03 0.02 0.02
0.03 0.03 0.02 0.03 0.03 0.04 0.03 0.02 0.02 0.02 0.02 0.02 0.02 0.01 0.01 0.02 0.03 0.04 0.03 0.03 0.02 0.01 0.01 0.01 0.02 0.01 0.01 0.00 0.00 0.00 0.00 0.01 0.04 0.12 0.10 0.07 0.06 0.03 0.04 0.06 0.05 0.03 0.03
0.03 0.03 0.04 0.04 0.05 0.05 0.05 0.05 0.06 0.04 0.04 0.04 0.07 0.06 0.05 0.08 0.09 0.08 0.09 0.07 0.05 0.03 0.03 0.02 0.03 0.02 0.01 0.01 0.03 0.03 0.01 0.01 0.05 0.10 0.05 0.03 0.04 0.03 0.04 0.06 0.06 0.05 0.04
0.03 0.04 0.04 0.06 0.05 0.08 0.10 0.08 0.09 0.10 0.11 0.10 0.11 0.12 0.12 0.12 0.10 0.10 0.12 0.11 0.09 0.07 0.08 0.10 0.07 0.05 0.05 0.06 0.07 0.06 0.01 0.01 0.03 0.03 0.05 0.03 0.02 0.02 0.04 0.06 0.06 0.07 0.07
0.03 0.05 0.05 0.06 0.08 0.10 0.13 0.14 0.15 0.15 0.14 0.13 0.11 0.11 0.12 0.12 0.11 0.10 0.11 0.13 0.14 0.13 0.14 0.15 0.15 0.12 0.11 0.09 0.06 0.05 0.03 0.02 0.04 0.06 0.06 0.05 0.02 0.03 0.05 0.06 0.06 0.08 0.09
0.04 0.04 0.04 0.04 0.08 0.12 0.14 0.16 0.17 0.21 0.19 0.14 0.12 0.10 0.11 0.12 0.11 0.11 0.10 0.13 0.11 0.12 0.13 0.13 0.13 0.14 0.12 0.11 0.07 0.07 0.06 0.03 0.04 0.08 0.08 0.08 0.06 0.06 0.06 0.07 0.07 0.07 0.08
0.07 0.07 0.04 0.03 0.04 0.06 0.11 0.17 0.17 0.15 0.14 0.10 0.09 0.07 0.07 0.11 0.12 0.11 0.12 0.13 0.13 0.12 0.10 0.10 0.11 0.15 0.14 0.15 0.10 0.06 0.04 0.03 0.03 0.03 0.06 0.11 0.09 0.08 0.07 0.08 0.08 0.08 0.09
0.10 0.09 0.07 0.05 0.05 0.05 0.07 0.09 0.09 0.08 0.06 0.05 0.07 0.06 0.05 0.06 0.08 0.10 0.11 0.12 0.11 0.11 0.12 0.12 0.14 0.17 0.15 0.14 0.13 0.11 0.08 0.06 0.05 0.05 0.09 0.14 0.14 0.12 0.10 0.09 0.09 0.09 0.12
0.08 0.08 0.07 0.07 0.08 0.08 0.08 0.08 0.09 0.13 0.08 0.05 0.05 0.07 0.07 0.07 0.07 0.10 0.11 0.11 0.11 0.11 0.12 0.14 0.17 0.18 0.18 0.16 0.14 0.12 0.10 0.11 0.09 0.06 0.07 0.11 0.13 0.14 0.16 0.10 0.07 0.07 0.09
0.06 0.07 0.07 0.09 0.09 0.11 0.12 0.11 0.10 0.08 0.06 0.05 0.06 0.08 0.09 0.09 0.08 0.10 0.12 0.13 0.12 0.12 0.11 0.10 0.17 0.20 0.20 0.17 0.13 0.12 0.10 0.08 0.08 0.07 0.08 0.09 0.12 0.14 0.17 0.13 0.09 0.08 0.08
0.06 0.07 0.09 0.10 0.10 0.11 0.12 0.14 0.11 0.09 0.08 0.08 0.09 0.09 0.08 0.07 0.05 0.06 0.09 0.10 0.11 0.11 0.11 0.11 0.14 0.15 0.17 0.18 0.14 0.13 0.13 0.11 0.09 0.08 0.07 0.09 0.11 0.11 0.13 0.15 0.13 0.08 0.07
0.06 0.08 0.11 0.13 0.13 0.14 0.14 0.13 0.12 0.11 0.09 0.09 0.08 0.06 0.06 0.06 0.06 0.07 0.09 0.10 0.10 0.11 0.09 0.10 0.12 0.12 0.12 0.14 0.15 0.15 0.12 0.10 0.09 0.08 0.08 0.07 0.07 0.08 0.11 0.14 0.15 0.11 0.08
0.05 0.07 0.10 0.13 0.13 0.16 0.19 0.20 0.18 0.14 0.09 0.08 0.07 0.08 0.07 0.07 0.07 0.07 0.09 0.09 0.09 0.11 0.11 0.11 0.12 0.11 0.11 0.13 0.15 0.16 0.13 0.12 0.10 0.07 0.08 0.08 0.08 0.09 0.10 0.13 0.17 0.19 0.14
0.07 0.08 0.09 0.12 0.11 0.12 0.15 0.18 0.16 0.13 0.11 0.10 0.09 0.10 0.11 0.10 0.08 0.08 0.08 0.06 0.05 0.07 0.09 0.10 0.11 0.12 0.12 0.14 0.16 0.16 0.14 0.14 0.13 0.10 0.08 0.08 0.09 0.10 0.10 0.09 0.12 0.14 0.14
0.06 0.06 0.08 0.11 0.11 0.10 0.12 0.15 0.16 0.14 0.13 0.13 0.13 0.14 0.13 0.13 0.11 0.09 0.07 0.04 0.03 0.02 0.04 0.05 0.08 0.10 0.11 0.12 0.13 0.14 0.15 0.16 0.15 0.12 0.09 0.08 0.07 0.08 0.09 0.08 0.09 0.11 0.11
0.04 0.05 0.06 0.09 0.08 0.08 0.11 0.15 0.17 0.18 0.16 0.13 0.13 0.15 0.13 0.13 0.10 0.09 0.07 0.04 0.03 0.02 0.02 0.03 0.04 0.05 0.07 0.10 0.12 0.11 0.11 0.12 0.13 0.13 0.10 0.08 0.06 0.06 0.07 0.08 0.09 0.11 0.12
0.03 0.03 0.05 0.07 0.06 0.06 0.08 0.11 0.13 0.14 0.14 0.13 0.12 0.12 0.13 0.13 0.10 0.07 0.05 0.05 0.04 0.04 0.03 0.03 0.03 0.03 0.04 0.05 0.07 0.09 0.10 0.11 0.11 0.11 0.12 0.11 0.08 0.07 0.06 0.06 0.08 0.12 0.13
MSLP
1008.66 1008.83 1009.21 1009.79 1010.47 1011.16 1011.75 1012.20 1012.48 1012.63 1012.69 1012.75 1012.88 1013.11 1013.43 1013.81 1014.20 1014.54 1014.81 1014.99 1015.10 1015.17 1015.26 1015.37 1015.52 1015.69 1015.86 1015.99 1016.05 1016.04 1015.97 1015.88 1015.83 1015.84 1015.95 1016.16 1016.45 1016.77 1017.08 1017.35 1017.54 1017.66 1017.73
1008.64 1008.89 1009.33 1009.94 1010.61 1011.27 1011.81 1012.20 1012.44 1012.57 1012.67 1012.82 1013.06 1013.40 1013.82 1014.27 1014.68 1015.00 1015.20 1015.29 1015.31 1015.31 1015.34 1015.44 1015.59 1015.79 1015.98 1016.11 1016.17 1016.15 1016.06 1015.95 1015.88 1015.90 1016.04 1016.28 1016.60 1016.96 1017.30 1017.59 1017.80 1017.93 1018.01
1008.50 1008.84 1009.35 1010.00 1010.69 1011.33 1011.84 1012.20 1012.43 1012.58 1012.74 1012.96 1013.29 1013.72 1014.20 1014.67 1015.05 1015.31 1015.43 1015.43 1015.38 1015.34 1015.35 1015.46 1015.65 1015.88 1016.10 1016.25 1016.30 1016.26 1016.15 1016.02 1015.94 1015.97 1016.11 1016.37 1016.72 1017.10 1017.47 1017.78 1018.00 1018.16 1018.27
1008.26 1008.70 1009.31 1010.03 1010.77 1011.42 1011.94 1012.30 1012.54 1012.72 1012.93 1013.21 1013.60 1014.07 1014.56 1015.00 1015.34 1015.52 1015.56 1015.49 1015.40 1015.34 1015.37 1015.52 1015.75 1016.03 1016.28 1016.44 1016.49 1016.42 1016.28 1016.13 1016.03 1016.04 1016.19 1016.46 1016.82 1017.21 1017.58 1017.90 1018.15 1018.33 1018.47
1007.95 1008.52 1009.25 1010.08 1010.89 1011.59 1012.14 1012.52 1012.79 1013.00 1013.24 1013.56 1013.97 1014.44 1014.91 1015.30 1015.57 1015.68 1015.66 1015.55 1015.45 1015.41 1015.49 1015.69 1015.98 1016.30 1016.56 1016.72 1016.74 1016.64 1016.46 1016.27 1016.15 1016.14 1016.28 1016.54 1016.89 1017.27 1017.64 1017.96 1018.22 1018.43 1018.61
1007.64 1008.35 1009.22 1010.17 1011.07 1011.84 1012.43 1012.85 1013.14 1013.38 1013.64 1013.97 1014.37 1014.81 1015.24 1015.57 1015.77 1015.83 1015.77 1015.67 1015.59 1015.60 1015.74 1016.00 1016.33 1016.67 1016.93 1017.06 1017.04 1016.88 1016.65 1016.42 1016.27 1016.24 1016.36 1016.60 1016.93 1017.30 1017.65 1017.96 1018.22 1018.45 1018.65
1007.40 1008.24 1009.25 1010.31 1011.30 1012.13 1012.76 1013.21 1013.52 1013.77 1014.03 1014.35 1014.73 1015.13 1015.51 1015.79 1015.95 1015.98 1015.92 1015.84 1015.80 1015.88 1016.08 1016.39 1016.75 1017.09 1017.31 1017.39 1017.30 1017.09 1016.80 1016.54 1016.35 1016.31 1016.41 1016.64 1016.95 1017.29 1017.61 1017.90 1018.15 1018.38 1018.61
1007.29 1008.24 1009.35 1010.48 1011.52 1012.39 1013.04 1013.49 1013.81 1014.06 1014.31 1014.61 1014.97 1015.34 1015.67 1015.92 1016.06 1016.09 1016.06 1016.02 1016.05 1016.18 1016.44 1016.77 1017.13 1017.43 1017.61 1017.61 1017.45 1017.18 1016.85 1016.55 1016.35 1016.31 1016.41 1016.63 1016.93 1017.25 1017.55 1017.81 1018.04 1018.26 1018.49
1007.37 1008.37 1009.51 1010.66 1011.70 1012.56 1013.19 1013.62 1013.92 1014.15 1014.40 1014.69 1015.02 1015.37 1015.69 1015.93 1016.07 1016.12 1016.13 1016.14 1016.22 1016.40 1016.68 1017.02 1017.35 1017.60 1017.70 1017.63 1017.41 1017.08 1016.73 1016.43 1016.24 1016.21 1016.33 1016.57 1016.87 1017.18 1017.46 1017.70 1017.91 1018.11 1018.32
1007.64 1008.63 1009.73 1010.83 1011.81 1012.59 1013.16 1013.55 1013.82 1014.03 1014.27 1014.56 1014.89 1015.24 1015.56 1015.81 1015.97 1016.05 1016.09 1016.14 1016.25 1016.45 1016.73 1017.04 1017.32 1017.51 1017.54 1017.42 1017.15 1016.80 1016.45 1016.17 1016.02 1016.04 1016.19 1016.46 1016.77 1017.08 1017.36 1017.59 1017.77 1017.95 1018.14
1008.10 1009.01 1010.01 1010.99 1011.84 1012.52 1012.99 1013.31 1013.54 1013.74 1013.97 1014.27 1014.62 1014.99 1015.32 1015.59 1015.76 1015.86 1015.92 1015.99 1016.11 1016.29 1016.54 1016.80 1017.03 1017.15 1017.14 1016.98 1016.71 1016.37 1016.06 1015.83 1015.74 1015.81 1016.01 1016.31 1016.65 1016.97 1017.25 1017.46 1017.63 1017.79 1017.95
1008.70 1009.49 1010.35 1011.16 1011.85 1012.38 1012.75 1012.99 1013.17 1013.36 1013.61 1013.93 1014.30 1014.69 1015.05 1015.33 1015.51 1015.62 1015.68 1015.73 1015.82 1015.96 1016.15 1016.36 1016.53 1016.61 1016.57 1016.41 1016.16 1015.88 1015.63 1015.48 1015.45 1015.58 1015.83 1016.16 1016.51 1016.84 1017.12 1017.33 1017.49 1017.63 1017.76
1009.38 1010.04 1010.73 1011.37 1011.89 1012.27 1012.52 1012.69 1012.84 1013.03 1013.29 1013.64 1014.04 1014.45 1014.82 1015.11 1015.29 1015.38 1015.41 1015.43 1015.46 1015.54 1015.67 1015.81 1015.93 1015.98 1015.95 1015.83 1015.64 1015.44 1015.28 1015.20 1015.24 1015.41 1015.69 1016.02 1016.37 1016.70 1016.97 1017.18 1017.33 1017.46 1017.58
1010.07 1010.61 1011.14 1011.61 1011.98 1012.23 1012.39 1012.51 1012.64 1012.83 1013.12 1013.50 1013.92 1014.35 1014.73 1015.00 1015.17 1015.23 1015.21 1015.17 1015.14 1015.14 1015.19 1015.27 1015.35 1015.40 1015.40 1015.34 1015.24 1015.14 1015.07 1015.07 1015.16 1015.35 1015.62 1015.93 1016.24 1016.54 1016.78 1016.98 1017.14 1017.26 1017.38
1010.66 1011.11 1011.53 1011.87 1012.13 1012.29 1012.39 1012.48 1012.61 1012.83 1013.14 1013.53 1013.97 1014.40 1014.77 1015.03 1015.17 1015.19 1015.12 1015.02 1014.92 1014.85 1014.83 1014.86 1014.91 1014.97 1015.01 1015.03 1015.02 1015.02 1015.04 1015.10 1015.23 1015.40 1015.63 1015.88 1016.13 1016.36 1016.57 1016.74 1016.90 1017.04 1017.17
1011.07 1011.46 1011.81 1012.08 1012.27 1012.40 1012.48 1012.58 1012.73 1012.97 1013.29 1013.70 1014.13 1014.55 1014.90 1015.14 1015.26 1015.25 1015.15 1015.00 1014.84 1014.72 1014.64 1014.62 1014.65 1014.72 1014.81 1014.90 1014.99 1015.08 1015.18 1015.29 1015.42 1015.56 1015.72 1015.87 1016.03 1016.18 1016.32 1016.47 1016.62 1016.78 1016.95
1011.25 1011.62 1011.93 1012.17 1012.35 1012.47 1012.58 1012.71 1012.89 1013.14 1013.47 1013.87 1014.29 1014.69 1015.02 1015.25 1015.36 1015.34 1015.24 1015.07 1014.88 1014.71 1014.59 1014.53 1014.55 1014.62 1014.74 1014.90 1015.07 1015.25 1015.41 1015.56 1015.68 1015.78 1015.85 1015.90 1015.95 1016.00 1016.07 1016.18 1016.33 1016.52 1016.73
1011.19 1011.54 1011.84 1012.08 1012.27 1012.43 1012.58 1012.74 1012.95 1013.22 1013.55 1013.93 1014.32 1014.69 1015.00 1015.23 1015.36 1015.37 1015.29 1015.13 1014.95 1014.76 1014.61 1014.53 1014.51 1014.58 1014.73 1014.93 1015.17 1015.41 1015.64 1015.82 1015.95 1016.01 1016.00 1015.95 1015.89 1015.85 1015.85 1015.91 1016.06 1016.28 1016.54
1010.97 1011.28 1011.55 1011.80 1012.01 1012.21 1012.40 1012.61 1012.84 1013.11 1013.42 1013.76 1014.12 1014.46 1014.77 1015.01 1015.17 1015.24 1015.22 1015.11 1014.96 1014.78 1014.62 1014.50 1014.46 1014.51 1014.66 1014.89 1015.18 1015.49 1015.77 1016.00 1016.14 1016.19 1016.13 1016.02 1015.87 1015.74 1015.67 1015.70 1015.84 1016.08 1016.38
1010.67 1010.91 1011.15 1011.37 1011.60 1011.82 1012.05 1012.29 1012.53 1012.79 1013.06 1013.36 1013.67 1013.98 1014.29 1014.56 1014.77 1014.92 1014.98 1014.95 1014.84 1014.69 1014.53 1014.39 1014.31 1014.34 1014.47 1014.71 1015.04 1015.40 1015.75 1016.04 1016.23 1016.29 1016.23 1016.07 1015.87 1015.69 1015.57 1015.57 1015.69 1015.94 1016.28
1010.45 1010.59 1010.75 1010.93 1011.14 1011.37 1011.61 1011.85 1012.09 1012.32 1012.55 1012.79 1013.05 1013.33 1013.62 1013.92 1014.19 1014.42 1014.57 1014.62 1014.58 1014.46 1014.30 1014.14 1014.03 1014.01 1014.13 1014.37 1014.72 1015.14 1015.56 1015.92 1016.18 1016.29 1016.26 1016.11 1015.90 1015.69 1015.54 1015.51 1015.62 1015.87 1016.22
1010.44 1010.46 1010.51 1010.62 1010.78 1010.99 1011.22 1011.45 1011.66 1011.85 1012.02 1012.20 1012.39 1012.63 1012.90 1013.21 1013.53 1013.82 1014.05 1014.18 1014.20 1014.11 1013.95 1013.77 1013.62 1013.57 1013.65 1013.89 1014.26 1014.72 1015.21 1015.66 1016.00 1016.20 1016.23 1016.12 1015.93 1015.72 1015.56 1015.51 1015.61 1015.85 1016.21
1010.78 1010.65 1010.58 1010.60 1010.70 1010.86 1011.05 1011.25 1011.42 1011.56 1011.67 1011.77 1011.89 1012.07 1012.30 1012.60 1012.93 1013.26 1013.53 1013.71 1013.76 1013.70 1013.54 1013.34 1013.16 1013.06 1013.11 1013.33 1013.71 1014.21 1014.76 1015.29 1015.73 1016.01 1016.12 1016.08 1015.93 1015.74 1015.59 1015.54 1015.62 1015.86 1016.21
1011.49 1011.23 1011.05 1010.96 1010.98 1011.09 1011.23 1011.38 1011.51 1011.59 1011.63 1011.66 1011.70 1011.79 1011.96 1012.21 1012.51 1012.83 1013.11 1013.30 1013.37 1013.31 1013.14 1012.92 1012.70 1012.58 1012.60 1012.79 1013.17 1013.69 1014.28 1014.87 1015.38 1015.74 1015.93 1015.96 1015.87 1015.72 1015.60 1015.55 1015.64 1015.86 1016.20
1012.53 1012.18 1011.89 1011.72 1011.66 1011.70 1011.79 1011.90 1011.97 1012.00 1011.97 1011.92 1011.88 1011.88 1011.96 1012.13 1012.36 1012.62 1012.85 1013.02 1013.07 1013.00 1012.81 1012.57 1012.34 1012.18 1012.17 1012.35 1012.70 1013.22 1013.82 1014.44 1014.99 1015.41 1015.67 1015.76 1015.73 1015.63 1015.54 1015.52 1015.61 1015.84 1016.17
1013.78 1013.37 1013.02 1012.78 1012.65 1012.63 1012.67 1012.73 1012.76 1012.74 1012.66 1012.54 1012.41 1012.32 1012.29 1012.35 1012.47 1012.64 1012.80 1012.90 1012.91 1012.81 1012.61 1012.35 1012.10 1011.93 1011.89 1012.04 1012.37 1012.85 1013.43 1014.04 1014.60 1015.05 1015.34 1015.48 1015.50 1015.46 1015.41 1015.42 1015.54 1015.78 1016.12
Thickness
5818 5812 5806 5802 5799 5797 5793 5790 5787 5784 5782 5779 5777 5774 5772 5770 5768 5766 5764 5762 5760 5759 5757 5755 5754 5752 5751 5750 5749 5748 5747 5747 5746 5744 5743 5741 5739 5738 5736 5735 5734 5733 5731
5820 5810 5804 5801 5797 5794 5791 5788 5785 5782 5779 5776 5774 5771 5769 5766 5764 5762 5760 5759 5757 5756 5754 5753 5752 5750 5749 5748 5747 5746 5745 5744 5743 5742 5740 5739 5737 5735 5733 5733 5732 5730 5728
5818 5809 5802 5798 5795 5791 5788 5785 5782 5779 5776 5773 5770 5767 5765 5763 5761 5759 5757 5756 5754 5753 5752 5750 5749 5748 5747 5746 5745 5744 5742 5742 5741 5740 5738 5738 5736 5733 5731 5730 5729 5728 5726
5816 5808 5801 5796 5792 5789 5785 5782 5779 5776 5773 5770 5767 5764 5762 5760 5757 5756 5754 5752 5751 5750 5749 5748 5746 5746 5744 5743 5742 5741 5741 5740 5739 5738 5738 5737 5736 5732 5730 5728 5727 5725 5724
5815 5806 5797 5793 5789 5786 5782 5779 5776 5773 5770 5767 5764 5762 5759 5757 5754 5753 5751 5749 5748 5747 5746 5745 5744 5743 5742 5741 5740 5739 5739 5738 5738 5738 5739 5737 5735 5731 5728 5726 5725 5723 5722
5812 5803 5794 5790 5786 5782 5779 5775 5772 5769 5766 5764 5761 5759 5756 5754 5752 5751 5749 5747 5746 5745 5744 5743 5741 5740 5740 5739 5738 5737 5737 5737 5737 5739 5739 5738 5734 5731 5728 5725 5723 5722 5720
5810 5800 5791 5786 5782 5779 5775 5772 5769 5766 5763 5760 5758 5756 5753 5751 5749 5747 5746 5744 5743 5742 5741 5740 5739 5738 5737 5736 5736 5735 5735 5735 5736 5737 5739 5737 5734 5731 5728 5725 5722 5720 5718
5807 5796 5787 5782 5778 5775 5771 5768 5765 5762 5759 5757 5754 5752 5750 5748 5746 5744 5743 5741 5740 5739 5738 5737 5736 5735 5734 5734 5733 5733 5733 5732 5736 5737 5737 5736 5733 5731 5727 5724 5721 5719 5717
5803 5793 5785 5779 5774 5771 5768 5764 5762 5758 5756 5753 5751 5748 5746 5745 5743 5741 5740 5738 5737 5736 5735 5734 5733 5732 5732 5731 5731 5731 5730 5731 5731 5735 5736 5734 5731 5730 5727 5723 5720 5718 5717
5799 5791 5785 5779 5773 5769 5765 5761 5758 5755 5752 5749 5747 5745 5743 5742 5740 5739 5737 5736 5735 5733 5732 5731 5730 5729 5729 5729 5729 5729 5729 5728 5730 5732 5733 5732 5730 5728 5726 5723 5720 5718 5716
5792 5788 5783 5779 5773 5769 5765 5760 5755 5752 5749 5747 5744 5742 5741 5740 5739 5738 5737 5735 5733 5731 5730 5729 5728 5727 5727 5727 5727 5728 5727 5727 5730 5731 5732 5731 5729 5727 5724 5722 5720 5717 5715
5784 5783 5781 5777 5773 5769 5765 5758 5755 5751 5748 5745 5744 5742 5739 5739 5740 5739 5737 5734 5731 5729 5728 5727 5726 5725 5725 5726 5727 5727 5726 5728 5729 5730 5731 5729 5727 5725 5723 5721 5719 5716 5714
5781 5779 5777 5774 5770 5766 5762 5756 5754 5751 5747 5744 5742 5740 5738 5738 5738 5737 5734 5732 5730 5728 5726 5726 5724 5723 5724 5725 5726 5726 5726 5728 5729 5730 5730 5727 5726 5724 5722 5720 5718 5716 5714
5776 5774 5773 5769 5765 5761 5758 5754 5751 5748 5744 5742 5740 5738 5736 5735 5734 5733 5732 5730 5728 5727 5725 5724 5723 5722 5722 5722 5724 5725 5726 5726 5727 5727 5726 5724 5723 5723 5721 5719 5717 5715 5713
5771 5769 5767 5765 5760 5756 5752 5750 5748 5744 5741 5739 5736 5734 5732 5731 5730 5730 5728 5726 5725 5724 5723 5722 5721 5721 5721 5721 5722 5722 5722 5724 5723 5723 5721 5720 5719 5718 5717 5717 5716 5714 5712
5766 5763 5761 5758 5754 5751 5747 5743 5742 5739 5737 5735 5732 5730 5728 5726 5725 5724 5723 5721 5720 5720 5719 5719 5719 5718 5717 5716 5716 5716 5717 5718 5719 5719 5718 5716 5715 5715 5714 5713 5713 5712 5710
5760 5757 5753 5751 5748 5745 5742 5738 5735 5733 5732 5730 5727 5724 5722 5720 5718 5717 5717 5716 5715 5715 5715 5714 5714 5713 5712 5712 5711 5711 5712 5713 5713 5714 5714 5713 5712 5712 5711 5711 5710 5709 5707
5754 5751 5748 5746 5742 5738 5735 5732 5730 5726 5725 5724 5722 5719 5716 5713 5711 5710 5710 5710 5709 5710 5710 5709 5708 5707 5705 5705 5705 5706 5707 5707 5708 5709 5710 5710 5710 5709 5709 5708 5707 5706 5705
5750 5745 5742 5739 5735 5732 5729 5727 5724 5720 5719 5718 5716 5713 5709 5707 5705 5704 5703 5703 5703 5704 5704 5703 5702 5700 5698 5698 5699 5701 5702 5703 5704 5705 5706 5706 5706 5705 5705 5704 5704 5703 5702
5744 5739 5735 5732 5729 5726 5723 5720 5717 5715 5713 5711 5709 5706 5703 5701 5700 5698 5698 5697 5697 5697 5697 5696 5694 5693 5693 5693 5694 5695 5696 5698 5700 5701 5701 5702 5702 5701 5701 5700 5700 5699 5698
5737 5732 5728 5724 5722 5719 5716 5712 5709 5707 5706 5705 5703 5700 5697 5695 5694 5692 5691 5690 5690 5689 5688 5688 5686 5685 5686 5687 5685 5685 5689 5693 5695 5695 5696 5696 5697 5697 5697 5695 5695 5695 5694
5728 5725 5721 5717 5715 5713 5711 5708 5706 5703 5701 5699 5697 5694 5691 5688 5686 5686 5684 5683 5682 5681 5680 5679 5678 5677 5678 5679 5676 5674 5675 5680 5684 5689 5689 5689 5690 5691 5692 5692 5691 5691 5691
5722 5719 5716 5713 5710 5707 5706 5703 5700 5697 5694 5691 5689 5686 5684 5682 5679 5678 5677 5676 5674 5673 5672 5671 5671 5669 5667 5669 5670 5666 5664 5665 5670 5677 5680 5682 5683 5684 5685 5686 5686 5685 5685
5716 5714 5710 5707 5704 5701 5699 5695 5691 5687 5683 5682 5681 5679 5676 5674 5673 5671 5669 5668 5666 5665 5664 5663 5663 5661 5660 5659 5661 5662 5661 5661 5658 5662 5669 5672 5675 5676 5678 5680 5679 5679 5679
5711 5708 5704 5700 5697 5695 5692 5688 5684 5680 5677 5675 5673 5670 5668 5667 5665 5664 5662 5661 5659 5657 5656 5655 5654 5653 5652 5651 5651 5652 5653 5655 5656 5653 5655 5660 5663 5668 5670 5671 5672 5672 5672
5705 5701 5697 5693 5688 5686 5683 5680 5676 5672 5669 5666 5663 5661 5660 5659 5658 5655 5655 5653 5651 5650 5648 5647 5646 5645 5644 5644 5643 5644 5644 5645 5646 5647 5648 5651 5653 5658 5662 5664 5664 5665 5665